Weather History for Hoquiam, WA

Change the Weather History Date:

Thursday, May 30, 2013

  Actual Average Record
Temperature  
Mean Temperature 55 °F 55 °F  
Max Temperature 59 °F 61 °F 79 °F (1956)
Min Temperature 50 °F 49 °F 39 °F (1970)
Degree Days  
Heating Degree Days 10 10  
Month to date heating degree days 323 360  
Cooling Degree Days 0 0  
Month to date cooling degree days 3 0  
Year to date cooling degree days 3 0  
Growing Degree Days 4 (Base 50)    
Moisture  
Dew Point 49 °F    
Average Humidity 83    
Maximum Humidity 89    
Minimum Humidity 77    
Precipitation  
Precipitation 0.01 in 0.09 in 1.09 in (1997)
Month to date precipitation 3.24 3.19  
Year to date precipitation 29.56 32.82  
Sea Level Pressure  
Sea Level Pressure 30.14 in    
Wind  
Wind Speed 9 mph (SSW)    
Max Wind Speed 22 mph    
Max Gust Speed 25 mph    
Visibility 10 miles    
Events Rain    
T = Trace of Precipitation, MM = Missing Value Source: NWS Daily Summary

Daily Weather History Graph

Daily Weather History Graph

Search for Another Location

Airport:

Trip Planner

Search our weather history database for the weather conditions in past years. The results will help you decide how hot, cold, wet, or windy it might be!

Date:

Astronomy

May. 30, 2013 Rise Set
Actual Time 5:25 AM PDT 9:01 PM PDT
Civil Twilight 4:47 AM PDT 9:39 PM PDT
Nautical Twilight 3:56 AM PDT 10:31 PM PDT
Astronomical Twilight 2:47 AM PDT 11:41 PM PDT
Moon 12:51 AM PDT (5/30) 11:56 AM PDT (5/30)
Length of Visible Light 16h 52m
Length of Day
15h 35m
Waning Gibbous, 61% of the Moon is Illuminated
May 30
Waning Gibbous
May 31
Last Quarter
Jun 8
New
Jun 16
First Quarter
Jun 23
Full

Hourly Weather History & Observations

Time (PDT) Temp. Dew Point Humidity Pressure Visibility Wind Dir Wind Speed Gust Speed Precip Events Conditions
12:53 AM 51.1 °F 46.9 °F 86% 30.04 in 10.0 mi West 4.6 mph - N/A   Mostly Cloudy
1:53 AM 51.1 °F 46.0 °F 83% 30.05 in 10.0 mi SW 9.2 mph - N/A   Mostly Cloudy
2:24 AM 51.8 °F 48.2 °F 88% 30.03 in 10.0 mi South 6.9 mph - N/A   Mostly Cloudy
2:53 AM 51.1 °F 48.0 °F 89% 30.05 in 10.0 mi South 6.9 mph - N/A   Overcast
3:19 AM 51.8 °F 46.4 °F 82% 30.04 in 10.0 mi South 6.9 mph - 0.00 in   Overcast
3:53 AM 51.1 °F 48.0 °F 89% 30.06 in 10.0 mi South 6.9 mph - 0.00 in   Overcast
4:53 AM 51.1 °F 48.0 °F 89% 30.06 in 10.0 mi South 6.9 mph - 0.00 in   Overcast
5:53 AM 50.0 °F 46.9 °F 89% 30.07 in 10.0 mi East 5.8 mph - N/A   Overcast
6:53 AM 51.1 °F 48.0 °F 89% 30.08 in 10.0 mi ESE 8.1 mph - N/A   Overcast
7:53 AM 53.1 °F 50.0 °F 89% 30.09 in 10.0 mi ESE 6.9 mph - N/A   Mostly Cloudy
8:53 AM 54.0 °F 50.0 °F 86% 30.09 in 10.0 mi SSE 10.4 mph - 0.00 in   Overcast
9:06 AM 53.6 °F 50.0 °F 88% 30.09 in 3.0 mi SSW 9.2 mph - 0.00 in Rain Rain
9:30 AM 53.6 °F 51.8 °F 94% 30.10 in 10.0 mi South 11.5 mph - 0.00 in   Overcast
9:53 AM 53.1 °F 48.9 °F 86% 30.11 in 10.0 mi South 11.5 mph - 0.00 in   Overcast
10:46 AM 55.4 °F 50.0 °F 82% 30.11 in 10.0 mi South 11.5 mph - N/A   Overcast
10:53 AM 55.9 °F 50.0 °F 80% 30.12 in 10.0 mi South 10.4 mph - N/A   Overcast
11:50 AM 57.2 °F 50.0 °F 77% 30.12 in 10.0 mi South 11.5 mph - N/A   Overcast
11:53 AM 57.9 °F 50.0 °F 75% 30.13 in 10.0 mi South 13.8 mph - N/A   Overcast
12:03 PM 59.0 °F 50.0 °F 72% 30.12 in 10.0 mi SSW 10.4 mph - N/A   Mostly Cloudy
12:32 PM 53.6 °F 50.0 °F 88% 30.13 in 9.0 mi SSW 17.3 mph - 0.01 in Rain Light Rain
12:53 PM 55.0 °F 51.1 °F 86% 30.15 in 10.0 mi SSW 17.3 mph - 0.01 in   Overcast
1:32 PM 53.6 °F 50.0 °F 88% 30.15 in 5.0 mi South 16.1 mph 25.3 mph 0.00 in Rain Light Rain
1:53 PM 54.0 °F 50.0 °F 86% 30.17 in 10.0 mi West 9.2 mph - 0.00 in Rain Light Rain
2:05 PM 55.4 °F 48.2 °F 77% 30.16 in 10.0 mi West 9.2 mph - 0.00 in   Mostly Cloudy
2:53 PM 55.0 °F 50.0 °F 83% 30.18 in 10.0 mi West 11.5 mph - 0.00 in Rain Light Rain
3:33 PM 53.6 °F 48.2 °F 82% 30.18 in 10.0 mi West 16.1 mph - 0.00 in Rain Light Rain
3:53 PM 53.1 °F 48.9 °F 86% 30.20 in 10.0 mi West 8.1 mph - 0.00 in   Overcast
4:10 PM 53.6 °F 48.2 °F 82% 30.19 in 10.0 mi SW 12.7 mph - N/A   Overcast
4:53 PM 53.1 °F 48.0 °F 83% 30.20 in 10.0 mi South 9.2 mph - 0.00 in   Overcast
5:53 PM 54.0 °F 48.0 °F 80% 30.21 in 10.0 mi SSW 10.4 mph - 0.00 in Rain Light Rain
6:53 PM 54.0 °F 48.9 °F 83% 30.22 in 10.0 mi SW 8.1 mph - 0.00 in   Overcast
7:53 PM 54.0 °F 48.0 °F 80% 30.22 in 10.0 mi SW 9.2 mph - N/A   Overcast
8:53 PM 54.0 °F 48.0 °F 80% 30.22 in 10.0 mi SSW 10.4 mph - N/A   Overcast
9:53 PM 53.1 °F 48.9 °F 86% 30.25 in 10.0 mi SW 8.1 mph - N/A   Overcast
10:53 PM 53.1 °F 48.9 °F 86% 30.26 in 10.0 mi SSE 6.9 mph - 0.00 in   Overcast
11:14 PM 53.6 °F 48.2 °F 82% 30.25 in 10.0 mi South 5.8 mph - N/A   Overcast
11:39 PM 53.6 °F 48.2 °F 82% 30.26 in 10.0 mi SSE 5.8 mph - N/A   Overcast
11:53 PM 52.0 °F 48.0 °F 86% 30.27 in 10.0 mi SE 5.8 mph - N/A   Mostly Cloudy